Location: Newark
(49.1000°N, 0.4667°W)
Time: 10:46:39
(UTC+00:00)

BEESAT 3 - Pass Details

Date: 08 July 2020
Orbit: 482 x 522 km, 64.9° (Epoch: 10 August)

Event Time Altitude Azimuth Distance (km) Brightness Sun altitude
Rises 21:10:23 0° 227° (SW) 2,634 ? -8.5°
Reaches altitude 10° 21:12:34 10° 231° (SW) 1,753 ? -8.7°
Maximum altitude 21:16:28 61° 312° (NW) 601 ? -9.1°
Drops below altitude 10° 21:20:24 10° 34° (NNE) 1,769 ? -9.5°
Sets 21:22:37 0° 38° (NE) 2,660 ? -9.7°
